Theta_e
352 354 354 355 355 354 354 355 353 352 350 350 349 349 350 352 349 349 352 351 351 349 352 355 358 356 355 358 354 357 361 360 361 367 370 370 367 370 373 367 370 369 372 367 361 364 369 367 367 367 372 364 362 358 356 354 357 370 365 367 363 365 369 364 358 357 365 370 361 360 364 357 355 360 357 355 354 355 357 366 362 361 360 357 354
352 354 355 353 352 352 353 353 354 353 349 348 349 348 348 350 352 351 347 351 353 348 353 351 354 355 353 353 356 354 360 364 355 362 365 366 363 359 359 370 371 369 370 369 369 362 366 367 366 361 367 363 358 353 350 348 349 352 364 361 364 364 362 362 362 357 356 369 366 369 363 358 357 358 355 355 355 359 359 359 358 363 363 360 357
352 356 355 353 353 352 351 352 352 351 349 348 347 347 347 347 350 348 345 347 354 355 352 352 360 359 357 358 362 358 363 360 360 362 363 363 363 360 355 363 366 364 363 364 360 365 362 364 359 363 355 359 358 360 355 354 352 353 351 354 360 363 359 362 360 358 356 360 365 361 360 359 361 360 358 362 361 359 361 361 357 357 361 365 360
353 355 356 354 351 352 352 351 350 350 349 349 347 347 347 347 350 350 353 352 353 361 367 357 359 367 357 361 364 363 364 360 360 359 362 362 362 367 369 365 365 364 362 361 357 360 357 360 356 357 364 366 365 362 357 356 354 355 352 355 359 359 359 359 357 350 351 357 364 359 363 359 362 359 359 358 356 357 359 364 367 362 361 360 358
355 356 355 354 351 351 350 350 348 348 348 347 346 347 347 346 350 352 351 350 355 356 363 367 364 362 350 354 358 364 361 360 361 357 358 359 360 358 363 366 363 364 363 364 362 362 361 359 360 360 365 358 355 354 356 355 352 352 352 353 360 355 355 351 350 350 347 349 359 364 365 363 362 359 361 359 356 358 361 361 363 369 368 361 358
357 358 354 354 356 352 351 350 348 348 347 347 346 346 346 346 347 349 352 350 355 352 357 354 354 357 355 355 356 361 365 364 366 365 357 356 358 359 360 363 361 361 361 356 360 360 358 362 360 362 359 355 358 357 356 356 356 356 356 358 361 357 352 352 351 349 350 354 355 357 361 356 360 361 359 359 356 355 355 356 360 366 363 360 355
364 362 360 357 358 355 350 350 349 347 347 347 346 346 345 345 346 348 350 351 349 350 352 357 358 356 357 356 355 360 361 357 365 364 361 360 358 361 357 360 365 362 363 361 362 361 360 357 363 360 360 359 358 356 357 356 355 356 356 356 355 352 351 351 352 351 350 352 354 352 350 353 356 357 361 361 357 356 352 350 348 354 364 361 358
363 364 363 362 361 359 359 355 352 354 353 355 352 346 346 346 349 350 351 352 348 348 348 350 354 355 357 356 358 359 362 363 365 365 362 360 358 358 359 362 358 358 358 364 361 358 358 357 356 359 359 361 360 365 362 361 358 355 359 359 355 354 351 350 350 351 350 350 352 351 352 350 354 359 358 357 354 354 352 347 344 347 353 359 360
362 361 358 360 363 365 365 366 365 357 366 365 357 351 349 348 352 356 356 352 350 350 350 349 352 356 357 358 358 356 356 358 358 359 363 367 364 360 360 363 358 357 357 357 360 361 359 357 356 359 363 364 365 365 367 364 362 362 360 360 356 355 354 352 352 352 352 350 352 355 353 352 355 355 354 351 350 350 350 349 346 346 350 355 361
350 349 345 348 356 356 361 366 365 365 362 359 357 358 361 357 349 349 350 351 357 360 358 356 352 353 354 356 356 354 353 352 368 366 367 366 364 362 362 368 365 359 358 360 358 356 359 357 357 362 362 363 364 366 367 368 368 362 364 359 356 353 352 353 353 353 349 345 345 349 351 351 352 353 352 353 354 352 349 348 347 350 351 352 357
350 349 346 349 352 358 362 362 365 361 360 359 361 359 362 359 356 353 350 350 352 354 356 352 352 351 352 353 352 353 355 363 362 347 349 360 361 363 363 368 366 364 361 362 358 353 353 354 357 355 355 360 363 364 365 367 367 367 365 364 362 358 354 351 352 352 348 347 349 350 352 354 356 356 354 357 352 353 352 352 349 349 349 349 346
350 350 350 351 350 356 361 364 362 360 359 359 360 361 359 359 356 354 357 356 354 355 356 352 355 350 352 355 358 361 364 356 343 343 347 348 357 364 366 363 360 361 362 358 353 352 353 353 354 353 357 360 360 357 366 367 367 366 365 364 363 361 360 360 356 353 351 350 351 351 351 351 350 352 351 353 354 355 355 354 353 351 350 349 349
350 348 348 353 352 354 357 361 360 359 358 354 352 353 355 356 356 355 356 355 351 352 352 357 356 357 354 355 358 359 360 346 337 342 343 345 347 357 360 364 362 365 357 355 352 351 352 352 352 352 357 361 360 360 361 361 364 365 364 362 362 357 344 347 353 355 355 356 350 352 351 351 351 351 345 346 352 351 352 354 356 355 352 349 351
351 349 350 356 360 359 359 358 357 357 357 357 355 354 352 352 354 354 354 355 354 352 353 353 354 355 357 359 363 362 363 349 337 341 341 342 343 351 359 362 364 363 361 355 353 354 353 352 350 348 353 357 359 358 359 360 362 361 359 356 355 354 351 352 351 351 356 357 355 351 347 346 340 339 341 344 344 343 344 344 349 349 349 349 354
346 350 355 358 359 359 360 359 357 357 355 353 353 353 354 355 354 354 353 351 349 349 351 350 350 352 354 355 359 360 359 336 334 337 336 336 338 355 356 359 363 359 356 353 354 355 352 350 352 353 355 355 347 352 358 357 357 356 354 352 352 341 339 338 340 343 344 345 345 334 335 335 335 335 336 339 338 342 342 343 343 346 352 352 355
345 345 349 355 357 358 359 359 359 359 358 355 354 354 355 356 353 354 352 350 349 349 348 349 350 352 353 353 355 355 351 330 332 331 330 331 340 351 356 359 360 359 356 354 356 356 356 351 354 355 351 346 342 342 351 358 356 353 352 352 347 335 332 332 329 335 340 335 332 329 327 331 332 334 334 331 335 339 340 341 343 336 342 345 343
347 348 353 354 357 359 359 357 357 357 358 357 357 356 355 355 355 355 351 349 350 347 347 348 352 353 352 351 350 348 349 328 322 324 326 327 339 351 356 357 358 356 357 354 353 355 356 356 357 355 348 342 337 326 332 350 355 353 351 350 350 335 330 329 328 326 325 323 323 325 325 324 324 323 322 324 329 335 339 336 329 331 336 334 338
347 347 349 351 356 358 359 359 356 356 356 355 356 358 358 357 356 355 351 348 348 350 351 354 353 352 351 352 351 354 339 327 320 321 322 324 335 346 356 357 357 357 356 355 353 352 351 354 355 352 345 341 328 325 328 347 354 352 349 348 349 346 332 330 330 331 327 326 327 327 328 329 330 329 328 327 327 334 331 326 324 329 331 332 331
347 349 350 353 355 356 357 357 357 356 355 355 356 356 356 355 356 355 355 353 353 355 350 348 349 349 351 352 352 352 339 330 316 317 319 324 335 345 351 355 354 353 352 352 351 348 344 341 344 342 339 333 319 321 326 342 349 353 351 349 349 347 345 336 333 331 333 336 336 338 339 339 339 337 334 336 333 331 328 327 326 327 327 329 329
349 352 350 352 354 355 355 354 355 355 354 355 356 357 356 355 354 354 354 354 351 351 351 347 347 351 351 348 345 344 340 330 320 312 314 318 327 342 349 355 350 352 352 350 350 348 339 336 333 323 320 319 316 314 318 321 340 347 351 348 348 345 344 345 343 338 337 333 331 333 335 334 336 333 332 329 330 330 327 326 325 325 326 326 326
350 350 351 352 353 353 353 353 352 352 353 354 354 354 353 350 350 350 351 351 349 352 352 349 347 347 349 345 338 335 336 330 320 311 310 312 316 332 345 352 352 352 351 350 348 346 339 334 332 325 317 316 314 312 314 321 336 349 349 345 346 344 343 338 338 336 332 334 335 337 337 336 338 333 331 334 331 330 330 326 326 325 323 320 318
348 349 349 350 350 350 351 351 350 350 350 351 349 351 350 350 349 350 351 348 347 346 348 344 343 343 345 343 336 331 330 330 325 315 310 309 311 318 339 345 344 347 347 346 348 343 337 334 332 323 316 316 314 313 316 323 332 340 336 322 324 331 341 341 336 331 331 332 336 337 337 338 334 330 330 329 327 330 329 327 330 326 325 321 320
348 347 347 347 347 348 348 349 349 348 349 350 348 347 348 347 348 349 347 346 345 344 342 341 341 340 340 337 333 328 326 324 325 322 314 309 310 314 316 330 331 352 345 341 339 336 333 331 332 324 312 309 311 314 317 323 334 327 318 322 325 329 340 336 338 338 334 331 333 332 333 332 331 328 327 327 325 329 326 332 331 331 329 329 331
347 346 346 345 345 346 346 347 348 348 349 349 348 345 344 344 344 345 346 344 341 340 340 340 339 338 334 332 331 329 327 324 325 325 322 313 311 311 313 314 319 334 338 338 336 333 331 329 323 308 305 304 308 311 315 326 326 314 318 321 328 336 341 336 333 334 334 331 330 329 328 330 329 328 328 328 326 331 330 329 334 332 333 330 334
346 345 345 345 344 345 345 345 346 347 346 346 343 342 340 339 337 338 340 339 337 335 335 337 335 331 328 326 326 328 329 329 327 326 324 321 315 315 316 318 318 320 331 329 330 327 317 309 307 308 310 310 313 317 321 322 316 317 318 322 341 335 336 334 335 334 330 330 330 329 327 327 328 329 331 333 335 333 330 327 326 332 331 329 330
341 340 339 339 338 337 334 333 334 336 342 345 343 343 341 338 337 336 336 336 335 334 333 332 329 327 325 324 324 325 327 328 328 328 327 323 322 319 319 322 328 327 327 324 321 316 313 312 312 314 318 323 336 333 332 332 325 326 328 335 336 332 330 330 336 335 333 330 331 330 328 327 327 329 335 334 336 329 330 327 324 325 325 325 323
336 335 334 334 334 334 332 331 329 329 330 335 341 342 341 339 338 337 336 334 333 332 331 330 327 325 324 324 324 325 325 325 325 327 329 330 325 323 325 324 326 327 328 329 328 328 329 330 328 322 322 325 330 330 330 330 331 331 330 332 334 333 333 333 332 331 328 331 329 328 328 328 330 331 332 332 331 331 330 327 322 322 324 324 323
334 333 333 333 332 332 331 331 327 323 322 322 322 326 333 335 332 331 332 333 331 330 330 328 326 325 323 323 324 324 323 325 326 327 327 328 328 329 326 328 327 325 323 325 328 329 330 328 326 334 332 329 326 327 327 327 328 331 333 329 327 329 331 329 329 327 327 327 328 333 336 334 331 329 330 330 329 329 328 327 325 326 324 323 322
333 333 332 332 331 330 329 328 326 323 320 317 315 313 315 323 330 326 321 319 327 331 329 326 327 326 326 325 324 323 324 325 325 309 314 305 315 322 328 327 326 334 332 324 330 331 330 330 330 330 328 325 322 323 323 325 329 331 325 328 327 327 328 328 327 330 334 331 330 331 332 334 334 332 332 327 327 327 327 329 327 327 325 325 322
334 333 332 331 331 330 330 330 329 328 326 323 320 316 308 300 306 322 322 313 308 304 314 329 328 329 328 326 322 326 325 327 303 296 295 294 295 296 296 295 295 307 312 311 329 330 330 329 329 328 326 324 323 324 325 326 328 326 326 325 329 324 327 327 327 326 328 334 334 331 327 328 326 325 324 323 324 323 326 325 329 326 324 323 318
334 331 331 331 330 330 330 330 331 332 331 330 329 326 323 317 298 297 304 306 301 297 297 299 306 315 329 325 313 302 302 298 295 294 295 293 293 293 293 293 294 295 298 315 331 331 331 329 328 328 327 325 325 326 326 326 327 326 323 326 325 329 325 322 323 326 330 331 331 329 327 323 323 321 319 321 321 323 327 326 325 323 321 318 317
333 332 332 334 336 335 332 332 332 332 332 332 331 330 327 325 320 302 296 299 299 295 295 296 296 298 304 313 322 316 303 296 293 293 293 293 294 293 294 295 295 295 296 300 327 334 332 330 329 328 328 327 328 332 328 326 327 328 329 327 324 325 323 323 325 324 324 321 318 324 322 322 321 320 320 321 321 322 321 320 322 321 320 319 318
333 332 335 337 336 335 334 335 335 335 333 332 331 331 329 327 324 322 316 298 295 296 295 295 294 294 295 294 294 300 301 295 293 293 293 292 292 293 293 294 295 295 303 321 329 334 333 331 329 329 328 329 328 327 332 328 327 326 333 327 322 321 324 327 330 329 326 324 324 326 321 321 319 321 321 319 319 318 319 319 318 317 316 314 314
332 333 333 334 337 337 337 337 336 337 337 337 335 334 332 331 329 327 324 323 321 310 300 295 295 297 293 291 293 293 293 293 293 293 292 294 293 294 293 304 298 296 311 327 328 328 328 331 332 336 337 336 328 331 331 332 330 327 326 324 324 326 325 328 328 328 323 323 322 320 318 317 319 320 317 318 316 315 315 314 314 314 313 311 310
332 333 333 332 332 334 335 337 335 335 336 336 337 333 332 334 331 329 328 327 326 324 322 319 304 293 306 303 292 292 293 293 294 293 293 293 294 292 295 318 327 326 322 325 327 329 332 332 332 329 329 329 328 327 328 329 328 327 325 325 324 323 325 324 321 320 320 321 321 318 318 318 319 317 316 316 315 315 314 313 313 312 311 310 310
330 331 333 333 334 335 334 336 337 338 340 342 337 333 332 331 329 330 328 329 326 323 321 321 318 306 296 293 292 293 293 292 293 293 293 292 292 293 327 329 328 329 329 331 331 333 334 336 332 330 330 329 329 327 326 326 325 324 324 324 322 321 320 319 320 321 323 323 321 321 318 321 318 317 317 317 315 313 312 312 311 310 309 309 309
332 332 332 335 336 335 334 336 337 336 332 337 336 339 336 336 333 330 329 328 328 325 323 322 319 317 313 318 305 294 291 293 294 294 293 295 291 305 323 329 327 331 327 331 333 334 334 334 334 332 331 330 330 326 329 331 327 327 326 326 326 322 321 321 320 321 322 321 319 322 321 319 320 318 314 312 311 311 311 311 309 309 309 309 309
333 333 334 335 337 337 337 335 331 329 334 333 334 335 337 333 332 338 333 331 329 326 323 321 320 318 317 322 321 320 316 297 297 303 299 297 307 320 325 327 330 327 328 332 333 335 337 338 337 338 333 332 332 331 328 322 322 322 323 325 324 322 322 323 323 321 322 321 319 322 322 320 317 316 314 313 312 312 310 308 307 307 308 309 307
329 328 326 327 327 332 334 329 326 325 328 330 328 330 330 329 332 334 336 331 329 329 328 324 323 322 322 321 321 323 322 318 318 318 320 321 324 325 327 331 334 331 332 334 334 337 336 333 327 325 326 327 327 326 327 326 323 322 323 325 323 323 323 322 323 322 321 320 320 321 318 318 320 316 315 314 309 307 306 306 307 307 305 305 305
326 325 325 323 328 330 331 333 331 328 331 327 328 329 331 330 329 330 330 331 328 332 330 327 324 328 325 321 321 322 318 318 319 322 322 321 323 331 334 330 333 332 329 330 330 329 328 327 329 328 329 329 327 326 325 326 325 325 326 322 323 322 325 326 324 322 322 319 319 320 319 317 313 313 311 309 307 308 307 307 307 307 306 305 304
332 332 330 325 325 327 329 329 330 331 329 330 329 330 329 331 329 329 329 328 330 328 328 329 329 332 323 319 312 312 322 322 324 325 328 329 330 328 328 328 329 331 328 329 331 331 331 329 332 333 333 331 328 325 324 325 325 325 324 324 323 320 319 322 321 320 318 319 318 318 314 312 310 310 310 311 308 310 309 309 307 306 305 305 304
327 329 330 331 332 330 329 328 328 332 333 331 330 329 329 329 328 328 329 329 327 328 326 328 331 332 318 308 305 305 321 325 326 326 328 326 329 329 329 331 334 332 331 329 329 329 331 329 329 330 329 327 325 325 323 324 323 321 321 321 324 321 319 321 323 321 316 315 318 317 315 312 311 312 311 306 311 308 308 307 306 306 305 304 303
323 322 326 331 328 327 327 327 329 328 330 327 327 328 329 329 328 327 327 328 325 325 325 327 329 330 322 309 310 306 322 325 324 325 325 329 328 328 327 329 329 329 333 332 327 331 329 327 327 325 323 324 325 325 323 323 324 322 319 319 318 318 317 316 315 317 319 318 318 315 317 316 313 313 312 310 309 309 308 307 305 304 304 304 303
320 320 324 324 326 325 326 326 326 326 326 326 327 326 327 329 328 329 326 326 325 325 324 324 325 328 328 317 313 317 324 325 325 324 325 325 328 326 327 328 328 326 329 332 328 328 327 325 323 322 322 322 321 320 317 317 317 316 317 316 316 314 314 314 312 314 314 310 309 309 309 310 311 313 311 309 309 307 304 304 304 304 302 301 301
318 318 317 317 319 321 320 330 322 323 322 325 323 325 326 325 324 324 324 324 325 326 323 324 324 323 328 325 324 324 325 326 326 326 326 325 324 325 325 326 327 328 325 325 326 329 329 326 322 320 320 320 320 319 317 317 316 315 315 314 314 313 311 309 309 310 310 311 309 309 308 308 307 307 306 305 304 304 303 303 302 302 302 302 301
316 316 316 315 315 317 320 319 321 320 320 319 320 320 320 320 320 320 320 323 323 323 324 323 324 325 325 328 327 326 327 328 327 327 324 325 324 324 327 330 332 327 325 324 327 328 326 325 320 319 320 319 318 320 318 318 317 316 316 318 316 312 311 311 311 310 309 308 307 307 306 306 307 307 307 307 308 304 303 304 304 303 302 301 301
319 317 316 316 316 317 317 321 318 317 319 317 316 315 315 316 319 317 318 321 318 319 319 322 320 320 321 325 325 328 327 327 327 325 325 326 328 331 327 325 324 323 324 326 325 328 325 326 322 321 320 319 318 316 318 318 320 315 313 311 310 310 309 309 309 308 308 307 307 306 305 304 304 304 304 304 304 303 303 302 301 301 301 301 300
317 317 317 316 316 315 315 316 315 316 317 318 317 317 317 316 316 316 316 318 317 317 316 318 321 321 320 322 322 322 322 323 322 324 324 324 325 327 324 326 326 326 326 324 324 325 323 322 322 319 316 316 316 314 316 316 312 308 308 307 307 307 306 304 309 308 307 307 306 306 306 305 304 304 303 304 303 302 301 301 301 301 301 301 301
317 316 316 315 315 314 315 315 315 314 314 314 314 314 314 315 315 315 316 316 316 316 317 317 318 319 319 320 318 319 320 321 321 321 322 323 328 330 328 326 327 326 324 322 323 324 324 323 320 315 316 316 315 315 313 309 307 306 304 303 301 297 296 297 301 304 301 307 307 306 305 304 305 305 305 304 303 303 301 302 301 301 301 301 301
315 315 315 315 315 315 316 315 315 315 315 315 314 314 314 315 314 314 315 315 315 316 316 318 318 318 318 319 320 318 318 319 319 320 320 321 323 327 326 327 325 324 322 318 316 315 315 315 315 314 314 315 315 310 306 307 305 303 302 300 294 293 293 293 294 295 302 305 305 305 304 304 305 304 304 303 303 302 301 301 302 301 301 300 301
315 314 314 314 314 314 315 315 314 314 314 314 314 314 313 314 314 314 314 314 315 315 315 316 316 315 315 316 317 318 317 319 318 319 321 321 322 324 324 323 318 319 319 316 314 314 314 313 314 313 312 309 307 306 305 303 303 302 297 294 291 288 290 294 300 289 289 294 305 304 303 303 303 302 302 302 301 301 302 301 301 301 301 301 301
Wind_Speed
14 11 11 10 10 11 12 10 11 9 10 9 9 8 8 7 7 8 6 6 6 7 6 6 6 7 8 7 8 6 6 6 6 4 5 5 5 3 2 0 2 2 2 3 5 3 2 2 4 3 2 3 3 2 3 2 4 1 2 1 2 2 2 1 1 1 1 2 0 1 2 2 2 4 2 2 2 4 7 5 8 5 5 5 4
12 11 10 10 11 12 11 11 10 9 11 10 9 9 9 7 6 6 8 6 6 8 6 6 5 7 8 6 6 7 7 6 5 6 5 4 5 6 6 5 3 4 3 3 2 4 2 2 3 5 3 3 3 4 4 5 9 6 5 3 1 4 2 1 1 0 2 1 1 1 1 3 1 4 2 3 4 4 6 5 4 2 3 5 4
11 9 9 9 10 11 11 11 11 11 11 10 11 10 9 9 7 8 9 7 5 5 7 6 4 4 5 4 4 5 2 3 3 3 4 6 5 6 5 3 5 5 5 5 5 3 4 3 5 3 5 3 2 3 5 8 7 7 5 4 3 2 4 3 2 2 4 2 1 1 2 3 1 2 2 2 3 4 6 3 3 3 2 3 5
10 10 9 11 13 11 10 10 12 12 12 10 11 11 9 8 7 7 6 4 7 4 3 7 6 3 4 4 3 3 2 3 3 5 4 4 4 3 3 4 2 2 3 4 5 4 5 4 5 4 2 2 2 4 3 4 4 4 2 4 6 5 4 5 5 4 5 5 1 1 1 2 1 2 2 3 3 3 4 3 1 3 2 1 5
9 10 11 11 12 11 11 11 11 12 12 10 11 10 10 9 7 7 6 5 6 5 3 2 3 3 6 5 4 3 3 3 4 5 5 5 5 5 4 3 4 4 4 4 5 5 4 4 3 3 2 3 3 3 3 3 3 5 3 1 2 3 3 3 2 3 3 5 3 1 1 0 1 2 2 4 4 3 3 5 4 1 2 1 4
10 9 11 10 8 11 11 11 11 11 11 11 11 10 10 10 9 9 7 6 4 6 6 5 5 5 6 6 5 4 3 3 3 4 6 6 4 4 4 4 4 4 4 5 4 5 5 3 4 1 4 4 2 2 2 1 2 2 3 3 3 3 3 3 2 1 1 2 2 3 4 4 2 1 1 2 3 3 4 5 4 2 4 2 4
5 7 9 9 8 9 11 11 9 10 10 10 9 9 10 10 9 9 8 7 7 6 7 7 6 6 6 7 8 5 5 7 4 4 5 5 5 4 5 3 2 3 4 4 4 5 5 5 1 4 1 1 2 4 2 3 1 2 3 3 3 3 1 1 1 1 1 3 2 2 1 2 3 2 1 1 1 1 2 4 3 2 3 2 2
8 8 7 7 7 8 6 8 9 6 6 5 6 8 9 9 7 5 7 8 9 10 9 9 9 9 7 8 6 6 5 5 4 4 5 5 6 6 4 3 3 2 4 3 4 3 1 2 4 1 2 2 1 2 4 4 2 2 3 3 4 3 3 3 2 1 1 2 2 2 1 2 4 1 2 2 1 0 0 1 3 4 2 1 1
4 2 1 2 3 4 4 3 3 3 1 1 2 6 7 7 5 3 4 7 9 10 10 10 9 9 9 7 7 6 6 6 6 6 5 2 4 6 5 1 4 2 3 4 4 3 1 2 3 3 2 5 5 2 4 3 3 3 4 4 4 4 4 3 2 2 1 1 2 2 4 5 4 3 2 2 3 2 0 1 3 3 3 2 1
8 9 8 5 5 4 7 3 3 6 6 4 3 6 7 6 5 4 5 6 6 6 6 5 8 9 9 8 7 7 7 6 7 4 4 3 3 4 3 2 2 2 1 3 4 4 7 4 8 10 5 2 1 2 4 3 5 4 5 5 5 4 4 4 3 3 2 1 3 4 4 3 1 1 2 2 1 1 2 2 3 3 2 2 1
7 9 9 5 1 2 4 3 3 5 3 3 2 2 3 3 5 7 9 12 14 15 14 11 7 7 12 9 8 8 5 2 5 6 6 5 3 2 1 2 1 1 2 2 4 11 9 8 6 7 11 9 5 3 4 4 5 6 5 6 6 5 5 5 4 3 3 3 3 5 4 1 1 1 2 2 3 4 3 2 2 3 3 2 3
5 6 6 4 4 2 1 2 4 4 3 2 0 1 1 2 5 4 3 4 4 4 4 2 4 8 2 6 5 3 2 3 1 4 4 2 3 2 1 0 0 1 2 3 7 7 4 2 3 5 5 5 4 1 2 4 4 5 6 5 5 8 6 1 2 3 4 4 4 3 2 1 2 3 3 2 2 3 2 3 2 2 2 3 2
5 5 5 5 5 6 4 3 5 5 3 1 1 0 1 3 3 3 4 5 2 0 2 3 4 2 3 5 5 2 1 3 4 5 5 4 3 2 2 2 2 1 3 5 7 4 4 6 5 2 3 4 4 3 4 3 3 5 6 6 7 9 6 4 4 1 2 2 3 1 2 1 1 3 5 5 3 2 4 2 0 1 1 3 1
4 4 4 4 6 6 6 5 6 5 4 4 2 2 2 2 2 3 4 4 4 3 3 4 4 3 4 5 5 2 1 4 5 4 3 3 4 3 3 3 1 2 5 6 3 5 7 5 4 3 2 2 1 1 1 2 2 3 3 3 2 5 6 6 7 5 1 3 1 2 3 3 4 3 3 4 3 3 3 4 4 2 3 2 2
3 2 2 4 5 5 5 5 6 5 4 4 3 2 2 3 4 4 4 4 4 4 4 5 2 3 4 4 6 5 3 6 3 5 5 4 4 3 2 3 1 4 5 4 4 2 1 1 4 5 5 3 3 2 3 3 2 2 2 2 4 5 4 4 4 4 5 5 5 6 4 4 4 4 3 3 3 2 3 4 6 6 3 4 1
7 4 7 3 5 4 4 4 4 5 5 4 4 4 4 4 4 5 5 3 2 2 2 3 3 2 3 5 5 7 7 7 8 7 7 6 5 2 3 2 0 3 4 4 4 3 5 6 3 4 3 5 2 1 2 2 4 5 4 3 5 6 5 3 5 8 7 6 6 6 5 6 6 5 5 5 4 4 5 5 2 5 3 2 2
8 8 6 3 4 4 5 5 4 5 5 6 6 5 5 5 5 5 5 4 4 3 3 4 4 4 4 4 5 3 4 6 8 8 7 7 2 2 3 3 1 1 4 4 4 3 2 2 3 4 5 4 3 3 4 4 4 5 4 5 5 7 5 4 7 12 14 13 12 11 9 9 8 8 9 10 8 5 4 4 5 5 4 3 2
5 3 2 2 3 3 3 4 5 6 6 6 4 3 4 3 4 5 5 4 4 4 3 2 1 1 1 2 3 1 4 6 10 9 8 6 4 4 2 3 3 2 3 4 3 2 1 1 2 4 5 4 3 4 5 4 3 4 4 4 5 6 7 7 5 4 7 11 11 10 9 8 7 7 9 9 10 7 4 4 5 4 4 4 3
3 4 3 3 2 2 2 2 3 4 5 4 4 3 4 4 3 4 3 4 3 3 3 1 0 1 2 2 5 5 6 7 10 8 7 5 4 3 3 3 2 2 3 4 4 3 4 6 10 7 6 4 5 5 6 5 2 4 4 4 4 5 6 9 8 7 5 5 5 5 4 5 3 2 4 8 10 8 6 5 5 5 4 3 4
2 3 4 3 4 2 1 1 2 4 5 4 3 3 3 3 2 2 2 2 3 4 5 5 4 3 6 8 7 7 7 7 7 9 7 6 5 3 4 4 2 1 3 4 4 4 4 4 5 6 5 6 7 7 7 6 4 4 4 4 3 4 5 5 5 5 4 5 4 3 2 1 2 3 3 3 4 4 5 4 4 4 4 5 4
3 2 3 1 1 2 2 2 1 1 1 2 2 3 4 2 1 1 2 1 1 0 6 5 4 4 5 8 8 7 6 7 7 10 9 8 7 4 3 4 3 3 3 2 2 4 4 4 3 5 7 8 8 8 8 7 6 3 4 5 5 8 7 6 6 8 5 4 3 3 3 2 2 4 3 2 3 3 3 4 4 4 4 5 5
5 4 3 2 3 2 3 3 2 1 2 3 3 1 3 3 3 3 4 5 6 4 4 6 5 4 4 7 8 7 8 10 6 9 10 11 11 10 4 2 1 2 3 3 3 4 5 5 3 4 6 7 6 6 6 6 6 6 6 8 11 12 6 5 4 4 4 4 3 2 1 0 2 4 3 4 4 3 3 3 2 3 3 3 4
5 5 4 3 3 3 2 2 3 2 0 1 0 0 3 3 2 2 3 5 4 7 6 6 5 5 5 6 6 6 6 6 9 8 10 11 11 12 11 7 7 3 3 4 4 5 6 5 5 6 5 5 6 7 6 6 7 5 7 9 8 8 5 3 2 3 3 5 5 4 4 4 4 4 4 4 4 3 4 2 1 1 2 2 2
5 4 3 4 5 3 4 4 4 3 3 3 4 4 4 3 3 3 6 6 6 6 6 6 5 5 6 6 5 5 5 6 8 10 8 10 11 12 13 14 14 8 5 4 5 5 6 5 4 4 4 6 8 8 8 7 4 4 7 8 4 3 1 3 5 5 5 4 4 3 3 4 4 4 3 3 3 2 3 3 1 2 0 1 0
5 5 4 4 2 2 4 5 4 2 3 4 5 5 5 4 3 5 4 6 6 5 3 3 5 7 6 5 4 4 4 4 4 7 11 10 11 12 13 13 12 10 7 4 5 4 6 8 7 7 8 9 8 6 5 3 2 0 2 1 2 5 5 4 3 3 4 3 3 2 3 3 3 2 1 2 0 2 3 4 5 3 3 4 4
8 9 8 8 8 8 8 7 7 7 6 4 5 4 4 5 3 4 5 7 6 5 5 4 4 5 6 5 4 4 3 3 3 3 4 8 8 11 12 11 12 12 10 6 7 6 6 7 7 7 6 3 2 2 2 1 4 5 6 5 1 4 4 4 2 2 2 3 3 3 3 4 4 2 1 1 1 2 2 4 5 5 5 5 6
9 9 8 7 6 7 7 5 7 8 7 6 5 5 6 5 6 5 5 5 5 5 5 5 5 5 5 4 4 4 4 3 2 2 2 3 5 5 5 7 9 7 4 3 3 2 3 3 2 3 3 3 5 4 3 2 3 2 2 2 1 2 4 4 4 4 5 3 3 4 4 3 3 1 2 2 3 2 2 3 4 4 4 4 4
8 8 8 7 7 8 7 11 8 6 7 7 6 6 6 6 6 5 4 4 5 4 5 5 5 5 5 4 4 4 4 2 2 2 2 2 2 3 2 3 3 4 4 2 2 2 3 3 1 1 2 4 4 3 3 2 3 3 3 2 3 3 5 7 7 5 3 4 3 3 1 1 3 2 3 4 3 4 4 3 2 3 3 4 4
10 10 9 9 8 8 7 6 6 8 8 8 8 6 4 4 5 5 5 4 3 4 5 5 5 4 5 4 4 4 3 2 2 3 3 4 3 2 1 2 2 0 2 4 4 2 3 2 2 3 4 4 4 4 5 5 5 6 6 4 4 4 4 4 4 3 1 1 2 3 2 1 1 1 2 4 4 4 3 2 1 1 2 3 3
9 8 8 8 8 8 6 7 8 7 6 6 7 7 10 11 8 5 4 8 9 6 2 4 4 3 4 4 4 2 1 2 6 8 7 7 7 7 5 5 6 5 7 6 3 4 4 5 5 5 6 6 6 6 7 7 6 4 4 1 2 3 3 4 4 4 2 1 2 2 4 3 4 5 5 4 5 4 3 2 2 2 2 3 4
7 7 8 8 8 8 8 8 7 6 6 7 5 5 6 9 13 12 9 7 7 9 11 10 10 7 3 2 3 6 6 7 9 8 7 6 5 3 4 6 7 8 9 5 4 4 5 5 5 5 6 7 7 6 4 4 3 5 5 4 5 3 6 6 5 5 3 1 2 3 3 5 4 5 5 4 3 3 2 3 3 2 3 4 4
7 6 6 6 6 6 6 6 6 5 6 6 6 5 5 6 6 10 11 10 11 11 11 11 11 11 10 7 3 2 4 6 7 7 6 4 5 5 4 3 4 6 7 6 4 4 4 4 4 5 6 5 7 3 4 4 4 3 2 4 6 6 6 5 4 4 4 5 5 4 5 5 5 4 3 3 3 3 4 3 2 3 3 3 3
7 7 6 6 6 6 6 5 4 5 5 6 5 5 5 5 5 5 5 7 10 12 12 12 11 11 11 11 11 9 7 6 6 5 4 4 3 4 7 6 2 6 3 2 4 4 4 5 6 6 6 6 3 3 3 5 4 4 1 8 8 6 5 4 3 3 3 3 2 2 5 5 4 3 3 3 3 4 4 4 4 5 4 5 4
8 6 6 5 4 4 4 4 4 4 4 4 3 3 4 5 5 5 4 4 4 6 8 10 9 9 10 10 9 8 6 5 4 4 4 5 5 6 5 2 1 1 2 0 3 5 6 7 4 2 2 1 4 4 5 4 4 5 5 6 6 6 4 3 2 3 5 4 4 6 5 4 3 3 3 3 4 4 4 4 4 4 4 4 4
6 8 9 6 4 5 5 4 5 5 4 3 2 4 5 4 4 4 4 3 3 3 2 3 6 8 5 4 5 5 5 4 3 3 4 5 6 8 5 1 2 0 1 3 4 5 5 5 4 5 6 6 6 6 5 5 5 6 7 7 5 4 3 5 5 4 5 3 3 5 3 2 3 3 3 3 3 3 3 3 3 4 4 4 4
5 5 5 5 5 5 5 4 3 3 2 0 2 5 3 3 2 3 2 3 4 4 4 3 2 2 4 5 3 3 2 1 0 1 2 3 4 5 2 2 1 2 3 4 4 4 3 1 4 4 4 4 4 5 5 6 5 5 5 6 7 7 7 6 5 5 4 3 3 3 2 1 3 3 2 2 3 3 3 3 4 4 4 3 3
5 5 5 5 4 4 4 3 4 3 2 2 3 1 2 3 2 3 3 3 4 4 4 4 3 2 1 2 3 1 2 2 1 2 3 3 2 2 3 2 2 0 2 2 2 2 2 2 2 3 4 4 4 5 3 4 5 6 6 6 5 5 5 5 5 3 2 2 2 1 1 2 1 2 4 4 4 3 3 3 4 3 2 3 4
6 6 5 5 3 3 3 3 3 2 2 1 2 3 2 4 3 2 2 3 4 5 5 4 4 4 4 3 5 3 2 2 2 3 2 2 3 3 4 4 3 4 3 2 3 2 2 2 3 2 2 5 4 3 5 7 5 5 4 4 5 5 4 4 4 3 2 0 0 1 2 2 3 3 3 2 2 2 3 3 3 3 3 4 3
4 6 7 7 5 3 3 4 4 3 2 3 3 2 2 3 1 2 2 3 1 2 5 5 5 5 5 5 4 3 3 2 2 3 3 4 4 5 5 3 1 3 3 2 2 1 2 4 6 6 5 4 4 4 3 4 5 4 4 3 4 4 4 2 2 2 0 0 1 3 3 2 2 3 2 2 4 4 3 3 3 3 4 3 4
5 3 3 4 3 5 4 2 2 3 3 0 1 3 2 2 3 4 2 2 4 2 3 5 4 3 7 7 5 5 4 4 4 4 5 6 6 2 1 2 2 3 3 3 4 4 4 4 4 4 3 3 4 3 4 4 4 4 3 4 3 1 1 2 3 3 1 3 3 2 1 3 5 4 4 5 3 2 2 3 2 3 3 3 3
3 3 1 2 2 4 4 2 3 5 5 4 4 3 2 1 0 2 2 3 3 4 3 3 4 4 8 9 11 9 4 4 4 4 4 3 2 2 2 1 0 1 0 2 2 1 2 3 2 2 2 2 3 4 4 3 3 3 3 2 2 1 1 1 3 3 3 2 2 3 4 5 5 3 2 2 2 2 2 2 3 3 3 2 3
4 2 2 2 2 2 2 3 4 5 4 3 3 5 7 6 4 3 4 4 3 2 2 1 1 4 10 15 14 13 7 3 3 4 2 3 2 3 2 1 1 2 2 2 2 3 2 3 2 2 2 3 3 4 3 2 2 0 0 1 1 2 2 1 1 3 5 4 2 2 3 4 3 1 1 0 1 3 2 2 2 2 2 3 3
5 5 3 1 1 1 1 3 3 2 2 4 4 5 4 4 5 4 3 1 4 5 5 2 3 7 9 15 15 13 6 4 3 4 5 2 3 3 3 3 2 3 2 3 4 3 4 4 3 3 4 4 3 2 2 3 3 3 3 4 4 3 4 3 3 2 2 2 1 1 1 1 2 2 2 2 1 1 2 2 3 3 3 3 3
4 4 3 2 2 2 2 1 2 2 3 2 2 3 4 3 3 4 4 5 4 5 6 7 7 2 3 3 4 5 4 3 4 4 4 4 3 3 3 3 3 4 3 2 3 4 3 3 4 6 5 4 5 5 5 5 5 5 4 3 2 4 3 3 1 2 3 5 6 5 5 4 2 1 1 1 1 3 3 4 4 3 3 4 4
4 4 4 4 4 4 4 3 2 2 1 2 3 3 3 3 3 2 3 3 2 3 4 5 5 2 6 5 5 5 5 5 4 4 3 4 4 3 4 5 4 4 4 3 4 3 2 3 6 7 5 5 4 4 4 5 5 5 4 5 5 6 8 8 8 8 6 5 5 4 4 3 4 4 4 4 4 4 3 3 3 5 4 3 4
3 3 3 3 3 3 3 4 5 4 4 4 4 4 4 4 4 3 3 2 2 3 2 3 4 3 3 4 4 5 5 4 4 4 3 4 5 5 3 2 0 3 4 5 3 3 2 3 7 5 5 7 3 3 4 3 3 3 3 2 3 6 6 6 7 7 8 6 4 4 4 4 3 3 3 2 1 2 4 3 3 4 4 4 4
4 3 3 4 5 3 2 2 2 3 4 5 4 4 4 3 3 3 3 4 6 5 2 2 3 4 4 3 4 5 5 4 4 4 5 4 3 2 6 7 5 7 10 11 9 5 3 1 4 5 5 5 6 5 3 3 2 3 6 7 7 6 6 6 7 7 7 8 6 4 5 4 4 3 3 3 3 3 4 5 5 6 6 6 5
3 3 4 5 4 4 4 4 4 4 3 3 3 4 4 4 4 4 3 3 4 3 3 3 3 3 2 2 2 2 2 3 3 3 3 3 3 5 4 2 4 5 6 7 4 7 6 5 4 7 8 7 6 5 3 2 6 8 5 6 6 6 7 7 5 5 4 4 4 3 3 2 2 2 3 4 4 4 5 4 4 4 5 5 6
3 4 4 4 3 3 4 5 5 4 4 4 4 3 3 4 5 4 4 5 4 3 3 3 4 4 3 3 4 4 4 5 5 5 4 3 2 3 3 5 3 4 5 6 5 1 2 3 5 7 6 6 6 4 5 8 8 7 7 4 7 13 13 11 6 4 3 2 1 2 3 5 3 2 2 3 3 3 3 3 4 5 5 5 6
3 4 4 3 3 4 4 3 3 3 4 4 4 4 4 4 3 3 4 4 4 4 5 4 4 4 3 3 2 3 3 3 4 4 5 5 4 2 4 4 5 5 6 6 7 8 7 7 7 6 6 4 5 9 8 6 7 7 5 6 9 12 12 12 11 10 6 3 2 1 3 5 4 2 3 2 3 3 4 4 4 5 6 6 7
4 4 4 4 5 5 5 5 5 5 5 5 5 5 4 4 4 5 4 4 4 5 5 6 5 5 5 5 4 4 5 4 5 4 5 5 7 5 4 6 8 7 7 7 7 7 7 7 7 6 8 10 10 8 8 8 6 6 7 11 11 10 10 8 6 6 8 5 3 2 3 4 4 4 4 4 5 4 5 6 6 6 6 6 7
Wind_Direction
182 189 190 196 190 187 191 192 195 199 201 201 200 201 203 214 193 210 186 209 184 193 210 204 192 193 206 205 214 197 201 200 191 177 179 204 237 264 277 27 239 229 232 265 275 270 219 280 305 298 299 279 297 292 282 231 197 132 59 247 134 137 122 135 221 266 317 25 86 20 312 337 27 29 59 313 318 316 318 113 146 172 152 148 131
181 185 193 191 197 192 195 191 197 199 206 201 204 202 203 205 202 209 207 202 198 188 200 213 220 193 208 210 220 215 191 194 201 167 187 218 220 230 220 179 191 220 256 271 249 256 273 253 274 283 265 256 259 287 288 340 22 352 16 8 323 89 76 82 27 129 267 124 39 339 44 1 59 37 338 328 329 327 335 326 96 140 139 125 131
183 178 191 188 202 195 196 192 194 202 206 208 201 210 204 202 210 205 218 193 202 200 180 207 220 233 232 214 213 251 164 175 202 240 204 200 213 240 253 202 191 212 228 223 240 248 246 246 252 250 265 302 6 307 20 16 37 30 33 0 290 71 53 33 24 347 331 19 73 10 31 345 0 56 344 299 317 317 302 316 11 75 119 166 129
184 178 185 194 199 200 197 200 195 199 206 210 203 207 210 203 198 220 215 206 174 196 203 182 209 211 214 249 246 219 189 194 222 222 231 244 239 227 263 286 273 273 294 285 264 252 254 244 253 264 294 295 12 39 90 129 114 99 67 32 29 41 43 50 58 66 322 314 43 39 41 329 330 37 357 311 295 317 302 311 15 59 39 318 119
185 173 185 198 198 201 199 205 203 200 206 209 209 204 216 211 188 199 212 233 166 175 198 228 219 216 233 224 234 223 218 214 219 238 242 227 225 237 235 234 243 224 227 250 273 277 281 289 289 314 335 48 52 21 24 108 152 131 130 17 68 60 69 46 32 115 167 275 292 172 158 299 338 15 339 318 325 333 342 341 349 59 113 20 85
182 172 185 197 200 202 200 204 207 202 206 211 212 207 212 221 198 182 196 226 229 176 181 206 222 220 223 231 225 218 222 231 234 243 251 254 246 240 248 244 250 259 268 270 264 263 274 278 283 140 126 134 150 175 229 222 86 96 113 124 103 96 99 152 135 286 314 268 292 334 29 351 336 295 344 354 356 337 342 341 327 13 72 34 107
172 180 180 193 192 210 204 201 208 209 202 213 213 211 211 219 215 180 184 203 218 222 193 197 205 222 219 222 229 217 209 220 219 231 243 251 260 250 243 257 302 292 263 260 270 274 264 280 66 101 98 137 167 185 181 115 125 117 108 89 105 142 143 21 55 94 313 315 39 42 284 295 287 260 274 353 314 27 317 330 333 345 92 152 181
180 175 177 194 189 205 220 202 204 208 208 203 228 225 217 220 219 191 177 195 211 221 221 208 207 217 221 220 223 225 210 209 210 228 242 245 242 243 235 195 167 253 302 300 283 290 18 63 297 71 147 167 216 155 159 150 157 150 134 133 128 135 121 104 82 59 336 274 218 248 251 271 250 211 195 229 254 230 44 49 317 321 1 11 197
67 62 103 233 221 208 223 273 237 211 17 20 253 254 233 226 234 225 198 204 212 219 224 221 216 213 214 220 224 218 226 208 215 225 223 255 322 282 270 155 147 202 259 277 291 285 64 23 254 201 195 200 203 335 42 55 129 150 151 153 144 132 128 127 151 185 225 280 285 221 236 230 218 222 226 245 217 239 351 113 250 285 327 287 236
126 92 67 6 329 25 336 343 65 59 53 59 60 6 347 340 304 274 249 217 207 223 232 228 238 226 220 217 218 223 221 227 84 64 148 148 238 282 274 118 124 155 232 282 288 323 41 354 353 345 326 341 306 151 111 99 64 107 153 155 154 157 143 157 181 175 174 195 261 267 248 232 214 204 235 262 292 198 209 222 267 285 281 309 40
112 126 154 186 33 324 225 223 97 95 103 108 80 44 20 358 46 49 28 18 12 4 338 318 282 350 352 326 267 229 227 111 142 142 202 202 227 262 311 53 93 120 282 323 16 41 15 354 31 9 317 305 297 33 87 73 84 94 121 146 156 162 166 166 182 163 171 223 217 238 250 218 160 225 214 178 208 213 221 209 261 288 290 221 215
138 136 136 149 154 151 281 167 119 112 101 82 104 140 92 70 74 54 47 52 68 87 91 11 357 89 160 259 278 298 69 43 116 182 221 202 60 20 44 226 356 42 59 39 48 60 99 131 157 223 243 286 315 201 80 98 89 96 111 109 110 64 49 63 175 210 192 212 230 239 281 22 6 340 337 353 343 289 233 227 216 271 256 258 247
132 131 143 154 180 176 183 148 114 116 120 127 151 121 85 92 106 103 86 92 94 346 97 48 44 66 205 249 256 242 154 150 208 197 203 169 94 359 277 195 169 116 74 63 81 126 151 166 196 203 282 8 344 353 31 58 85 106 98 105 112 107 86 59 7 302 226 174 249 326 50 325 337 42 18 349 321 342 342 313 38 280 287 286 258
128 140 155 178 174 163 171 149 135 133 143 157 170 165 112 96 90 95 106 107 122 135 101 68 28 316 303 311 303 290 221 166 178 151 125 104 62 22 307 284 185 110 91 83 104 175 203 189 125 177 237 263 34 348 198 207 175 144 119 102 100 82 65 38 9 8 204 161 172 96 53 51 69 51 358 340 18 5 345 321 319 302 284 285 283
31 353 199 170 153 163 166 152 143 149 154 154 158 173 186 154 172 159 138 143 182 196 132 115 162 265 296 304 291 293 286 138 136 108 89 79 52 8 292 293 81 92 91 105 100 121 219 182 174 180 195 155 119 346 150 167 117 92 110 131 115 80 48 34 19 23 34 48 78 72 69 60 54 45 1 2 357 329 297 287 276 271 261 280 7
151 223 260 219 167 177 172 153 158 162 166 171 177 182 194 198 173 155 132 152 224 239 128 126 180 228 295 280 310 322 0 43 57 53 43 36 24 308 269 267 323 112 120 117 114 166 197 201 188 182 162 114 131 162 175 177 165 166 154 152 117 88 69 13 53 61 66 70 73 78 72 69 71 60 36 9 351 341 325 312 1 10 342 288 253
155 181 196 190 196 192 164 162 167 185 192 187 192 191 193 189 160 151 142 160 208 231 204 188 193 172 185 208 187 258 277 359 41 41 39 20 348 271 271 245 189 113 116 135 147 181 109 88 179 157 117 117 75 6 329 259 209 171 172 168 162 128 121 108 79 92 94 91 98 106 110 97 76 59 43 30 20 356 344 1 11 344 346 311 342
161 170 155 204 223 200 175 183 181 192 200 206 202 183 159 179 171 162 160 150 189 219 214 234 72 77 302 276 63 69 109 28 36 34 32 16 333 295 277 252 213 115 95 122 133 95 53 47 8 120 108 81 37 38 5 326 221 174 194 202 177 155 141 143 129 109 125 133 139 140 131 120 106 75 53 39 24 20 29 23 359 343 353 349 11
154 161 172 190 201 183 189 226 195 199 203 203 207 195 171 190 168 157 159 162 158 160 150 57 347 199 191 68 101 88 97 54 36 28 23 9 336 292 286 277 291 114 164 150 149 125 85 52 54 56 84 88 54 41 24 4 308 183 205 216 197 185 172 152 141 147 169 150 141 143 154 149 120 103 76 57 42 34 13 15 5 12 12 350 320
193 142 176 188 161 139 106 271 243 216 213 203 192 191 164 133 124 106 134 139 152 178 177 178 185 92 89 83 72 73 83 71 42 36 27 9 355 309 289 283 288 266 166 169 179 140 104 92 61 36 72 64 52 35 21 19 358 313 263 235 232 106 85 116 125 126 115 96 90 86 86 174 148 104 69 58 63 56 26 17 18 8 358 335 339
93 67 55 47 81 126 139 181 178 352 297 215 177 173 147 159 250 161 168 160 181 38 125 120 97 92 83 87 80 65 64 83 60 44 35 34 27 21 286 290 268 253 162 163 124 112 114 96 81 33 44 48 46 30 21 5 0 343 42 53 57 104 101 95 100 110 107 103 120 144 182 200 196 134 112 69 61 54 57 37 11 2 17 17 14
101 103 116 117 105 99 85 68 66 58 236 240 232 146 116 149 175 173 165 183 170 149 106 105 104 106 97 96 89 82 64 65 83 54 48 41 35 34 28 32 77 282 194 126 141 128 120 111 96 51 51 59 60 59 41 47 66 84 90 101 86 83 97 120 131 121 131 176 164 127 98 66 82 55 66 77 38 16 34 58 19 19 19 54 18
121 116 120 121 138 130 114 133 115 140 228 336 2 44 58 36 346 242 202 163 146 131 125 119 121 125 112 87 85 81 75 66 66 72 59 55 48 44 36 23 360 135 148 149 116 105 104 106 104 71 48 40 46 41 39 55 76 70 81 86 111 120 123 112 115 65 69 64 56 48 10 14 52 52 43 27 60 18 351 347 54 54 42 39 29
128 124 127 135 149 163 155 159 130 135 127 93 57 62 64 69 350 258 158 138 128 124 119 124 121 103 83 65 67 81 82 80 60 61 62 59 58 59 53 42 30 37 45 107 119 112 106 90 85 82 80 64 56 49 43 50 74 87 87 97 89 299 62 86 61 69 75 68 66 47 37 24 37 52 43 34 22 354 303 309 39 17 162 199 179
108 109 107 101 99 100 65 59 71 85 89 89 95 88 77 48 46 353 36 96 97 93 85 115 123 116 104 92 78 75 79 85 93 81 76 67 66 71 70 65 57 55 71 53 61 71 96 107 113 113 103 85 62 40 34 35 33 61 99 171 344 60 54 65 85 94 98 124 127 131 106 76 71 75 99 340 338 2 359 14 334 323 25 20 22
76 69 63 56 59 65 65 49 49 50 54 75 98 104 111 107 61 45 40 56 67 88 102 81 77 87 96 108 114 106 89 81 72 84 99 84 72 68 72 72 76 77 79 72 73 83 94 104 106 107 105 101 115 96 101 322 327 344 345 341 0 136 125 131 124 113 147 139 110 104 108 132 126 132 218 216 37 44 359 15 353 16 1 16 354
72 71 71 68 67 72 73 66 62 57 50 42 56 78 88 94 104 97 87 93 93 99 95 99 91 96 114 124 125 121 102 76 94 84 41 88 94 90 92 97 100 94 92 108 119 101 107 98 72 37 57 51 89 75 53 20 349 325 304 273 298 66 67 69 67 51 25 20 94 103 114 118 126 141 210 195 159 144 51 49 19 356 358 360 323
84 82 85 84 76 72 74 78 76 69 55 47 33 29 36 61 63 57 69 91 120 115 119 118 125 132 134 133 126 109 110 149 153 126 91 64 93 129 154 164 147 137 131 158 159 135 116 102 99 154 98 108 109 144 170 187 221 235 221 134 97 102 101 89 73 57 41 44 48 30 37 261 236 191 205 180 131 111 83 74 32 1 1 331 317
94 91 86 82 81 87 84 72 61 65 66 63 57 40 13 18 69 82 43 5 32 98 109 110 118 131 141 140 131 132 138 148 131 54 64 39 30 350 23 35 15 179 93 158 171 164 144 144 161 164 169 157 166 186 198 201 211 219 167 135 142 157 166 170 135 110 141 189 89 257 229 277 176 111 322 44 70 74 115 99 68 13 331 289 312
101 100 100 97 98 93 84 86 89 92 86 88 83 76 65 59 37 42 51 16 31 23 66 121 134 149 117 65 28 76 45 92 98 82 70 60 46 30 13 352 327 326 332 304 241 179 196 175 173 171 181 193 192 203 197 192 191 161 94 259 67 71 86 79 83 114 110 352 268 313 60 347 27 30 30 27 39 26 13 43 15 29 296 349 351
98 96 96 99 108 109 106 102 101 99 104 100 94 87 76 57 52 49 47 42 36 51 59 53 50 42 69 114 83 66 58 83 83 72 63 55 58 38 8 359 356 348 337 330 243 207 205 183 178 183 197 206 213 211 148 162 144 124 142 144 130 114 66 56 42 13 1 58 57 70 50 30 25 34 24 18 29 344 319 42 5 339 15 12 330
91 100 106 117 116 108 106 109 110 112 115 117 111 107 94 90 70 46 44 43 46 53 53 52 49 54 50 59 95 109 67 69 76 68 55 23 357 332 334 8 45 20 341 330 264 229 220 201 206 204 203 213 238 243 139 118 99 64 91 142 108 87 90 77 59 42 33 31 359 24 51 31 34 32 4 354 10 338 29 346 334 17 4 337 354
93 92 94 101 108 113 118 127 132 136 132 135 142 140 122 113 100 97 59 58 69 65 54 50 51 46 45 39 41 53 73 71 49 38 35 15 348 343 346 316 223 133 43 328 270 290 261 222 226 225 210 213 172 104 73 88 109 133 182 71 86 102 100 100 90 88 93 88 298 40 55 45 37 354 4 10 355 355 359 354 16 13 13 12 9
86 85 85 91 95 106 128 140 147 142 154 145 139 130 126 120 122 124 124 127 101 76 72 61 59 71 64 58 53 59 62 68 38 30 7 355 349 357 6 339 40 348 135 255 327 312 314 278 231 267 301 3 96 78 70 59 62 60 61 111 106 90 107 110 72 65 56 36 9 50 47 30 356 18 22 2 16 6 352 1 358 15 21 11 344
89 89 95 91 76 64 46 47 53 39 46 53 89 95 84 88 130 145 147 150 133 119 120 72 48 42 54 67 57 60 66 40 34 15 6 342 351 340 317 255 185 77 144 211 242 274 294 335 31 49 47 43 50 58 62 68 58 51 51 51 95 112 89 78 85 87 80 52 53 68 51 7 15 24 10 4 13 4 354 346 355 15 16 350 358
114 107 99 98 90 76 71 67 49 38 357 27 164 115 136 167 189 152 144 130 121 131 129 103 94 46 68 70 112 111 98 98 348 327 321 308 339 350 326 199 211 186 223 211 231 237 240 284 37 39 59 65 59 77 70 75 87 89 80 77 72 71 71 73 62 50 55 41 57 114 100 25 44 23 343 345 18 8 358 357 14 16 352 348 353
49 71 83 83 91 99 107 91 68 38 350 321 27 96 194 196 169 138 148 132 139 136 124 125 135 115 257 197 166 245 223 246 237 244 280 292 271 233 281 293 201 172 259 280 245 303 315 91 57 50 45 70 66 64 73 101 107 90 76 71 76 86 80 75 87 98 66 36 1 326 75 68 50 37 24 21 15 357 341 23 11 342 322 318 310
57 42 36 24 50 110 116 113 109 113 198 130 33 323 17 32 14 338 109 130 142 129 141 160 176 162 172 170 196 213 206 233 304 315 272 280 277 249 254 266 220 189 217 224 289 288 287 60 64 26 48 33 31 42 59 62 77 83 84 85 85 89 104 116 107 82 95 179 108 58 75 86 73 56 47 23 306 337 32 16 339 324 336 337 342
68 57 35 22 340 319 150 137 150 208 225 194 155 228 157 139 134 356 73 98 102 184 147 160 190 180 160 142 166 186 147 219 220 196 201 229 238 245 243 264 283 222 218 171 152 333 317 61 61 65 50 59 75 75 85 81 78 92 95 85 87 93 91 78 103 103 214 33 314 69 65 68 76 79 78 341 35 37 359 332 330 347 334 349 1
91 92 64 7 345 340 336 67 167 224 175 344 123 185 164 185 179 168 158 193 160 205 164 162 183 200 137 154 167 172 203 218 221 201 189 200 220 208 359 271 254 21 34 26 38 33 42 62 55 63 54 34 48 49 44 40 56 61 69 83 74 15 114 141 127 147 91 70 55 63 76 68 61 47 39 49 44 346 312 329 340 336 356 6 352
28 14 36 136 24 348 315 307 1 7 26 14 2 355 15 321 356 290 248 239 185 168 178 200 185 142 146 164 174 180 205 227 240 237 214 173 165 157 200 271 49 163 36 86 63 15 353 90 72 48 58 54 52 53 63 53 56 51 67 94 134 89 356 355 92 110 145 153 70 43 60 67 65 46 11 29 339 308 8 353 328 357 347 327 330
16 12 42 17 348 311 324 2 17 350 10 29 348 18 8 348 5 13 357 332 314 291 209 261 52 108 156 163 175 183 199 243 279 290 246 194 193 156 186 211 118 136 203 136 136 185 110 79 91 117 93 62 64 50 60 74 69 207 103 134 152 161 169 173 74 60 53 61 54 60 81 91 98 358 291 159 11 25 338 316 316 302 307 343 348
336 329 0 333 210 238 329 350 349 332 9 355 4 352 346 344 342 339 315 333 342 328 324 278 203 154 168 178 184 183 200 213 246 259 295 254 177 168 168 211 154 136 235 151 165 144 141 159 129 90 79 67 51 54 24 40 46 13 26 26 37 43 37 46 25 55 113 118 117 159 183 158 135 129 75 50 348 293 292 320 333 331 328 343 348
317 325 324 343 3 352 308 302 315 26 6 43 327 305 308 326 327 330 331 332 331 320 321 324 342 25 138 177 167 166 216 229 241 244 249 269 256 215 196 194 183 159 207 182 172 160 163 120 115 97 87 66 54 37 32 30 28 22 27 15 34 68 65 57 66 238 81 54 43 26 26 25 23 359 276 263 0 5 358 343 322 331 354 347 336
335 2 1 338 360 356 358 18 349 315 289 258 241 230 215 218 245 269 290 312 324 313 297 317 311 3 128 153 176 204 217 238 250 265 264 272 276 251 218 211 188 167 171 210 210 162 188 174 119 112 110 96 79 58 51 39 30 33 17 12 20 44 52 45 40 44 55 51 47 29 17 5 9 8 15 23 18 3 333 325 331 329 322 327 340
349 340 332 341 324 344 346 16 17 342 339 337 343 332 342 342 340 329 319 282 259 252 303 303 309 328 138 161 171 208 222 245 258 273 279 264 261 270 298 303 160 227 219 211 218 207 222 121 116 113 98 88 96 93 85 75 47 43 56 357 39 57 60 50 43 47 49 47 30 24 2 8 351 0 5 32 307 271 264 296 322 329 341 334 332
7 8 344 358 11 1 327 327 309 355 352 349 329 308 288 276 285 306 320 347 354 351 316 261 239 242 254 234 198 200 217 235 235 240 249 262 273 322 47 46 41 49 20 356 355 3 47 23 92 111 119 130 101 75 49 52 91 77 50 49 59 67 72 72 65 54 43 36 28 24 25 7 346 337 335 339 323 331 358 355 345 341 338 331 331
356 1 19 8 2 358 1 350 344 341 313 309 337 352 347 343 327 308 288 283 281 265 290 322 329 320 304 269 247 265 270 273 276 280 305 307 312 76 106 97 71 69 68 73 5 327 1 355 46 80 81 81 87 81 74 58 61 71 59 52 53 63 75 85 86 72 66 56 43 9 325 318 324 317 318 323 336 352 351 345 340 319 318 318 316
13 27 8 13 352 331 351 2 2 348 342 334 327 321 325 329 337 337 334 327 320 316 309 308 318 331 340 336 346 356 8 4 348 342 326 305 344 94 103 110 95 88 99 106 112 94 356 11 74 84 81 77 73 64 55 63 76 73 73 64 68 71 65 59 65 52 46 36 11 337 294 274 287 329 335 344 349 345 327 317 308 311 309 306 301
15 10 360 354 359 10 3 339 338 336 350 350 348 340 347 336 332 336 342 342 343 338 334 329 314 303 307 322 358 24 6 350 343 338 333 332 325 60 81 93 97 110 106 108 90 82 73 63 58 63 77 80 68 75 84 76 70 77 74 74 76 75 75 65 51 39 21 4 356 333 330 313 309 318 333 335 333 326 317 322 325 313 304 302 304
16 12 9 14 9 1 358 4 2 357 356 2 354 344 342 344 340 340 340 345 346 347 348 342 342 359 354 350 5 20 15 12 0 348 337 10 27 46 45 65 74 68 72 83 87 86 75 66 63 53 47 62 71 76 68 74 73 75 82 75 69 63 60 62 59 51 39 9 326 356 349 346 347 344 340 352 348 340 322 311 303 298 300 302 303